Temperature
17 16 16 15 15 14 14 13 13 13 12 12 12 12 11 11 11 11 11 11 10 10 10 10 10 10 10 10 10 10 10 10 10 11 11 12 12 12 13 13 13 13 14
17 16 16 15 15 14 14 13 13 13 12 12 12 11 11 11 11 11 11 10 10 10 10 10 10 10 10 10 10 10 10 10 10 10 11 11 11 12 12 12 13 13 13
17 16 16 15 15 14 14 13 13 13 12 12 12 11 11 11 11 11 10 10 10 10 10 10 10 10 10 10 10 10 10 10 10 10 10 11 11 11 11 12 12 12 13
17 16 16 15 15 14 14 13 13 12 12 12 12 11 11 11 11 11 10 10 10 10 10 10 10 10 10 10 9 9 9 9 9 10 10 10 10 11 11 11 12 12 12
17 17 16 15 15 14 14 13 13 12 12 12 12 11 11 11 11 10 10 10 10 10 10 10 10 10 9 9 9 9 9 9 9 9 9 9 10 10 10 11 11 11 12
17 17 16 15 15 14 14 14 13 13 12 12 12 11 11 11 11 10 10 10 10 10 10 10 10 10 9 9 9 9 9 9 9 9 9 9 9 10 10 10 10 10 11
17 17 16 16 15 15 14 14 13 13 12 12 12 12 11 11 11 10 10 10 10 10 9 9 9 9 9 9 9 9 8 8 8 8 8 9 9 9 9 9 10 10 10
17 17 16 16 15 15 14 14 13 13 13 12 12 12 11 11 11 10 10 10 10 10 9 9 9 9 9 9 8 8 9 9 9 8 8 9 9 9 9 9 9 9 10
17 17 16 16 15 15 14 14 14 13 13 12 12 12 12 11 11 11 10 10 10 10 9 9 9 9 9 8 8 8 8 9 8 8 8 8 8 9 9 9 9 9 9
17 17 16 16 15 15 15 14 14 13 13 12 12 12 12 11 11 11 10 10 10 10 10 9 9 9 9 8 8 8 8 8 8 8 8 8 8 8 8 8 9 9 9
17 17 16 16 15 15 14 14 13 13 13 12 12 12 12 11 11 11 10 10 10 10 10 9 9 9 8 8 8 8 8 8 8 8 8 8 8 8 8 8 8 9 9
17 16 16 16 15 15 14 14 13 13 13 12 12 12 12 11 11 11 11 10 10 10 10 9 9 9 8 8 8 8 8 8 8 8 8 8 8 8 8 8 9 9 9
17 16 16 16 15 15 14 14 13 13 13 12 12 12 12 12 11 11 11 10 10 10 9 9 9 9 8 8 8 8 8 8 8 7 8 8 8 8 8 8 8 9 9
17 16 16 15 15 15 14 14 13 13 13 12 12 12 12 12 11 11 11 10 10 10 9 9 9 9 9 9 8 8 8 8 8 7 8 8 8 8 8 8 8 8 8
16 16 15 15 15 14 14 14 13 13 13 12 12 12 12 12 12 11 11 10 10 10 9 9 9 9 9 9 8 8 8 8 8 8 8 8 8 8 8 8 8 8 8
16 15 15 14 14 14 13 13 13 13 13 12 12 12 12 12 11 11 11 10 10 10 9 9 9 9 9 9 8 8 8 8 8 8 8 8 8 8 8 8 8 8 8
15 15 14 14 13 13 13 13 13 13 12 12 12 12 12 11 11 11 11 10 10 10 10 10 9 9 9 9 8 8 8 8 8 8 8 8 8 8 8 8 8 8 8
14 14 14 13 13 13 12 12 12 12 12 12 12 12 12 11 11 11 11 10 10 10 10 9 9 9 9 9 8 8 8 8 8 8 8 8 8 8 8 8 8 8 8
13 13 13 13 12 12 12 12 12 11 11 11 12 12 11 11 11 11 11 10 10 10 10 10 9 9 9 9 9 8 8 8 8 8 8 8 8 8 8 8 8 8 8
13 12 12 12 12 12 12 11 11 11 11 11 11 11 11 11 11 11 11 10 10 10 10 9 9 9 9 9 9 8 8 8 8 8 8 8 8 8 8 8 8 8 8
12 12 11 11 11 11 11 11 11 11 11 11 11 11 11 11 10 10 10 10 10 10 9 9 9 9 9 9 8 8 8 8 8 8 8 8 8 8 8 8 8 8 8
11 11 11 11 11 10 10 10 10 10 10 10 10 10 10 10 10 10 10 10 10 9 9 9 9 9 8 8 8 8 8 8 8 8 8 8 8 8 8 8 8 8 8
11 10 10 10 10 10 10 10 10 10 10 10 10 10 10 10 10 10 10 9 9 9 9 9 9 9 8 8 8 8 8 8 8 8 8 8 8 8 8 8 8 8 8
10 10 10 10 10 9 9 10 10 10 10 10 9 9 9 9 9 9 9 9 9 9 9 9 8 8 8 8 8 8 8 8 8 8 8 8 8 8 8 8 8 8 8
10 9 9 9 9 9 9 9 9 9 9 9 9 9 9 9 9 9 9 9 9 9 8 8 8 8 8 8 8 8 8 8 8 8 8 8 8 8 8 8 8 8 8
9 9 9 8 8 8 8 8 9 9 8 8 8 8 8 8 8 8 8 8 8 8 8 8 8 8 8 8 8 8 8 8 8 8 8 8 8 8 8 8 8 8 8
Wind_Speed
8 7 7 6 6 6 5 5 4 3 3 3 3 3 4 4 4 3 4 4 4 5 4 4 5 5 4 4 3 3 3 3 5 5 4 4 4 6 6 8 10 10 11
8 7 7 6 6 5 5 5 4 4 4 4 4 4 4 4 4 4 5 5 5 6 6 5 6 5 5 5 4 5 4 5 5 6 4 4 5 6 6 6 6 9 10
8 8 7 6 6 6 6 5 5 5 4 4 4 5 5 6 6 6 6 6 6 6 6 6 6 5 6 5 6 6 5 6 4 5 5 4 4 4 5 5 5 4 7
9 8 8 7 7 7 6 6 6 5 5 5 5 6 6 6 6 6 5 5 5 5 6 6 6 7 7 7 6 7 6 6 5 4 5 4 4 4 3 4 5 4 5
9 8 8 8 7 7 6 6 6 5 5 5 5 5 5 5 5 5 5 5 6 6 6 7 7 9 11 9 7 7 6 5 5 5 5 4 4 4 4 3 4 5 5
9 9 8 7 7 7 7 6 5 5 5 4 5 5 5 5 7 8 7 6 6 6 7 7 8 10 11 11 12 11 9 8 7 6 5 6 7 6 5 4 4 3 4
9 8 8 8 8 7 7 6 5 5 5 5 5 6 7 8 11 11 11 7 7 7 7 7 8 9 9 7 9 11 10 11 11 8 8 9 8 7 5 5 5 5 5
8 8 7 8 8 7 6 6 6 5 5 5 6 7 7 9 12 12 12 8 7 8 8 8 8 9 10 9 8 8 8 9 9 8 8 10 10 9 8 7 7 6 5
8 8 8 8 8 7 7 6 6 5 5 6 6 7 7 9 12 12 11 5 6 8 8 8 8 8 12 12 8 8 9 9 11 12 11 11 13 13 10 5 5 4 5
9 8 8 8 8 8 8 7 6 5 6 6 7 7 8 9 12 13 11 5 7 7 7 7 10 10 11 10 6 7 9 9 8 8 8 9 8 9 11 9 8 7 5
8 7 7 7 7 7 6 5 6 6 6 6 7 8 8 10 11 13 11 6 7 7 6 6 7 11 12 11 9 8 12 11 7 7 7 7 7 6 7 7 8 8 8
7 7 7 7 6 5 6 6 6 6 6 7 7 7 7 7 9 10 11 11 10 7 7 7 8 12 12 13 10 11 15 11 6 6 7 8 7 7 7 7 8 9 10
6 7 6 6 6 5 6 6 6 5 6 6 6 7 7 6 7 11 11 11 11 8 7 10 12 13 13 11 14 16 12 7 6 7 9 9 8 8 7 6 6 7 8
6 6 5 5 6 6 5 6 6 6 6 7 7 7 7 6 6 6 5 6 7 7 7 8 11 12 11 12 12 10 8 7 8 9 8 8 6 6 6 6 6 5 5
5 5 5 5 6 6 6 7 8 8 9 9 8 8 8 8 10 12 8 6 6 6 4 4 4 5 6 6 7 7 7 6 8 8 8 8 7 7 7 6 5 5 6
4 4 4 4 5 5 6 7 10 12 15 16 17 13 10 13 14 13 13 13 11 7 4 5 6 7 8 8 8 8 7 7 8 8 8 8 8 8 7 6 5 6 7
4 5 4 4 5 5 5 6 7 9 11 13 15 16 16 16 16 14 12 10 9 8 5 7 8 8 8 8 8 8 8 8 7 8 8 9 8 8 7 7 6 6 6
4 5 5 5 6 6 6 6 6 6 7 7 9 13 15 16 16 15 10 5 5 6 7 8 9 9 8 8 8 8 9 8 7 7 8 8 8 7 7 7 7 7 7
4 5 5 5 6 6 6 6 6 7 7 7 7 8 11 11 12 11 7 5 7 7 8 8 9 9 8 9 9 8 8 8 8 7 7 8 8 7 7 8 7 9 8
4 8 7 5 5 6 6 6 6 6 7 6 7 7 5 3 4 5 5 6 7 8 8 8 8 8 8 8 8 8 7 7 8 7 7 7 7 7 8 9 8 7 7
3 5 8 6 5 6 6 6 6 7 7 7 7 8 8 6 7 7 6 7 7 8 8 8 8 8 7 7 7 7 8 7 7 7 6 6 6 7 7 7 7 7 6
3 4 4 5 6 6 6 6 6 6 7 8 7 7 9 6 6 7 7 7 7 7 7 7 7 7 7 7 7 7 7 7 6 6 5 5 6 6 6 6 6 6 6
4 5 6 6 6 7 6 5 5 6 6 7 7 6 6 5 6 7 7 6 6 6 5 5 6 6 6 6 6 6 6 7 6 5 5 5 5 5 6 6 7 6 6
5 5 6 6 6 5 6 6 6 6 6 6 6 6 5 5 5 6 5 5 5 5 5 5 5 7 9 6 5 4 5 5 5 5 6 5 5 5 5 5 6 6 6
5 5 6 6 6 6 6 6 6 6 6 5 5 5 5 5 5 5 5 5 6 5 6 6 5 6 7 7 5 4 5 6 6 4 4 4 5 5 5 5 5 5 6
5 5 5 5 5 5 5 5 5 5 5 5 5 5 5 4 4 4 4 4 5 5 6 5 6 6 6 4 4 4 4 5 6 6 4 4 4 5 5 5 5 5 5
Wind_Direction
172 168 163 172 172 165 164 177 184 196 203 213 233 244 254 261 264 257 259 263 264 274 278 272 273 271 270 272 267 257 244 221 253 274 265 278 282 289 294 286 278 269 264
174 170 172 173 168 167 179 191 192 201 214 221 229 239 250 253 250 245 257 262 256 262 269 271 274 278 275 272 266 261 256 241 235 267 280 282 276 279 280 282 279 275 264
168 167 170 174 176 185 195 200 202 208 222 232 231 239 248 252 251 249 246 252 252 254 257 258 264 269 272 271 267 262 260 266 240 246 269 270 275 283 293 291 287 283 278
166 167 175 185 190 196 201 206 212 214 222 236 239 239 242 247 250 253 248 244 249 255 255 255 259 257 258 261 266 260 257 261 259 255 264 270 271 278 282 287 297 290 287
167 175 189 194 195 196 201 212 219 222 228 231 238 247 251 250 245 236 235 240 245 257 264 264 265 268 266 262 264 255 251 249 253 256 263 272 274 279 273 268 276 285 284
174 188 194 191 194 201 209 216 217 224 232 233 239 245 253 252 246 234 233 241 246 251 262 269 274 274 275 274 275 270 253 242 241 246 253 254 260 257 260 262 267 281 289
184 193 195 194 199 207 208 202 212 223 226 234 242 245 251 256 257 254 248 234 239 246 253 264 277 280 282 275 277 281 277 263 244 234 241 247 250 245 246 260 251 242 250
189 199 199 195 199 202 200 211 221 220 225 235 243 247 251 258 257 255 253 239 239 248 250 253 260 273 277 268 268 272 268 267 259 246 236 245 247 243 234 240 246 253 260
194 201 200 193 195 199 208 221 223 221 234 239 245 249 252 262 261 258 249 231 241 253 256 257 256 265 273 274 265 265 271 274 271 260 250 253 257 256 245 238 241 241 263
200 200 195 189 192 202 214 221 220 221 236 246 253 252 249 257 262 260 245 220 240 255 262 261 261 261 269 274 256 253 264 269 272 280 278 278 271 267 256 229 224 227 237
195 190 189 192 198 207 217 222 225 230 241 250 258 263 259 257 264 264 251 216 227 244 255 261 260 263 266 268 259 245 252 258 262 261 267 271 271 264 256 238 222 219 223
180 184 193 201 209 210 214 230 229 228 242 254 260 269 267 262 257 259 253 236 223 225 243 252 258 265 267 269 266 257 259 262 256 256 261 264 263 261 256 247 235 228 227
176 193 204 210 219 220 219 230 237 234 237 249 249 257 265 262 259 257 252 244 233 226 244 253 262 270 275 273 265 263 263 251 239 247 254 257 252 252 254 256 253 241 239
189 206 212 219 236 242 238 232 235 240 241 244 244 249 256 260 256 249 243 245 245 246 256 268 274 274 270 263 267 268 252 237 232 243 249 253 252 250 250 245 247 240 240
199 213 221 228 241 253 252 242 237 236 234 233 240 237 240 255 253 233 219 226 226 231 247 272 274 278 277 273 269 263 255 245 240 241 244 251 251 250 250 239 232 227 227
211 229 234 241 248 252 263 276 259 250 256 249 246 243 241 243 254 252 237 236 236 221 210 251 265 266 267 269 270 269 260 252 246 242 240 241 245 247 248 241 226 224 231
216 230 237 243 249 254 255 259 278 287 278 269 261 255 247 252 257 255 248 243 236 204 216 248 256 260 262 262 261 260 261 258 250 243 242 241 239 240 239 238 231 228 231
244 246 244 245 249 253 256 255 252 262 280 285 277 262 257 254 255 255 249 223 241 215 227 244 253 256 256 259 259 259 260 259 252 246 242 240 234 231 233 235 228 226 230
252 257 255 253 254 255 257 256 255 257 258 266 277 280 267 259 259 257 220 209 238 246 240 243 249 252 254 256 257 256 256 255 251 244 242 238 231 225 229 231 229 230 227
269 274 272 265 267 268 262 259 262 262 263 265 268 268 267 245 250 251 222 226 237 246 248 250 252 252 253 256 257 256 256 256 253 247 245 240 230 221 224 225 225 226 225
280 286 288 285 275 270 265 263 264 265 265 266 267 263 247 235 245 249 245 238 237 242 247 250 252 254 253 255 258 256 255 257 254 248 247 243 231 224 223 222 224 223 220
286 286 287 283 280 277 274 270 267 266 265 268 270 272 265 248 245 248 247 247 244 241 241 246 254 254 250 251 254 256 257 258 258 252 249 246 235 228 223 220 222 220 216
296 296 293 288 283 284 284 277 274 275 274 273 271 271 271 261 255 251 252 253 250 250 252 253 257 260 259 251 248 246 248 254 254 251 249 246 241 234 225 222 219 218 216
291 290 291 292 292 290 287 283 281 281 277 275 275 273 272 273 269 262 260 258 256 258 258 256 256 262 267 264 254 245 245 251 254 249 242 237 239 239 230 225 221 216 213
292 290 289 290 292 292 289 287 285 288 287 282 280 281 279 276 272 272 267 262 266 270 273 272 266 268 270 265 262 262 268 268 266 261 249 237 238 236 232 228 222 217 213
297 297 295 294 294 295 292 288 289 297 299 295 293 288 281 277 277 277 276 270 272 274 279 281 275 272 275 274 274 284 287 287 284 276 262 243 239 240 233 229 223 214 207
Height
1535 1536 1536 1536 1536 1535 1535 1535 1534 1533 1533 1532 1531 1529 1528 1527 1526 1525 1524 1524 1523 1522 1521 1520 1519 1519 1518 1517 1517 1516 1515 1514 1512 1510 1511 1511 1510 1510 1510 1510 1509 1509 1509
1533 1533 1534 1533 1533 1533 1533 1532 1531 1531 1530 1529 1528 1527 1526 1525 1523 1522 1521 1520 1519 1519 1518 1517 1516 1515 1513 1512 1512 1511 1510 1509 1508 1506 1505 1505 1505 1505 1504 1504 1504 1503 1503
1530 1531 1531 1531 1531 1530 1530 1529 1528 1528 1527 1526 1525 1524 1523 1521 1520 1519 1518 1517 1516 1515 1514 1513 1511 1510 1509 1508 1506 1505 1505 1504 1503 1501 1500 1500 1499 1500 1499 1498 1498 1498 1497
1527 1528 1528 1528 1528 1527 1527 1526 1526 1525 1524 1523 1522 1520 1519 1518 1517 1516 1514 1513 1512 1511 1510 1509 1507 1505 1504 1502 1501 1500 1499 1498 1498 1496 1495 1494 1494 1494 1494 1493 1492 1492 1492
1524 1524 1524 1524 1524 1524 1524 1523 1522 1521 1520 1519 1518 1517 1515 1514 1513 1512 1511 1509 1508 1507 1505 1504 1502 1500 1498 1497 1496 1495 1494 1493 1492 1491 1490 1489 1488 1488 1488 1488 1487 1486 1486
1520 1521 1521 1521 1521 1521 1521 1520 1519 1518 1517 1516 1514 1513 1511 1510 1509 1507 1506 1505 1503 1502 1500 1499 1497 1495 1493 1492 1491 1490 1489 1488 1487 1486 1485 1484 1483 1483 1483 1483 1482 1481 1480
1517 1517 1517 1518 1518 1518 1517 1516 1515 1514 1513 1512 1510 1509 1507 1506 1504 1503 1502 1500 1499 1497 1495 1493 1492 1490 1488 1486 1485 1484 1483 1483 1482 1481 1479 1478 1478 1478 1478 1477 1477 1476 1476
1513 1514 1514 1514 1514 1514 1513 1512 1511 1510 1509 1508 1506 1504 1503 1501 1500 1499 1497 1496 1494 1492 1491 1489 1487 1485 1483 1482 1480 1478 1477 1476 1476 1475 1474 1473 1472 1472 1472 1472 1471 1471 1470
1509 1509 1510 1510 1510 1510 1509 1509 1508 1506 1505 1503 1502 1500 1498 1497 1496 1494 1493 1491 1489 1487 1486 1484 1482 1480 1478 1477 1475 1473 1471 1470 1470 1469 1468 1467 1466 1466 1466 1466 1465 1465 1464
1505 1505 1506 1506 1506 1506 1505 1504 1503 1502 1501 1499 1497 1496 1494 1492 1491 1490 1488 1486 1484 1483 1481 1479 1477 1475 1473 1471 1469 1467 1465 1464 1463 1462 1461 1460 1459 1459 1459 1459 1459 1460 1459
1501 1502 1502 1502 1502 1501 1501 1500 1499 1498 1496 1495 1493 1491 1490 1488 1486 1485 1483 1481 1479 1477 1475 1474 1472 1470 1468 1465 1463 1461 1459 1458 1456 1455 1453 1453 1452 1452 1452 1453 1453 1454 1453
1497 1497 1498 1498 1498 1497 1496 1495 1494 1493 1491 1490 1488 1486 1485 1483 1482 1480 1478 1476 1474 1472 1470 1468 1466 1464 1462 1460 1457 1455 1454 1452 1450 1448 1446 1445 1445 1445 1445 1446 1446 1447 1447
1493 1493 1494 1494 1493 1493 1492 1490 1489 1488 1487 1485 1483 1481 1479 1478 1476 1475 1473 1471 1469 1467 1464 1462 1460 1458 1456 1453 1451 1449 1447 1445 1443 1441 1440 1439 1438 1438 1438 1438 1439 1440 1440
1489 1489 1489 1489 1489 1488 1487 1486 1484 1483 1481 1480 1478 1476 1474 1472 1471 1469 1467 1465 1463 1461 1459 1456 1454 1452 1449 1447 1444 1442 1440 1439 1437 1435 1433 1432 1432 1432 1432 1432 1432 1433 1434
1485 1485 1485 1484 1484 1483 1482 1480 1479 1478 1477 1475 1472 1471 1468 1466 1465 1464 1461 1459 1457 1455 1453 1450 1448 1446 1443 1440 1438 1436 1434 1432 1430 1429 1428 1426 1426 1425 1425 1426 1426 1427 1427
1481 1481 1480 1479 1478 1477 1476 1474 1473 1472 1470 1469 1467 1465 1462 1461 1459 1457 1455 1453 1451 1449 1447 1444 1442 1439 1436 1434 1431 1429 1427 1425 1424 1423 1421 1420 1420 1419 1419 1420 1420 1421 1422
1477 1476 1475 1474 1473 1471 1470 1468 1466 1465 1464 1462 1460 1458 1456 1454 1453 1451 1449 1447 1445 1443 1440 1438 1435 1433 1430 1428 1425 1423 1421 1419 1418 1416 1415 1414 1413 1413 1413 1414 1414 1415 1416
1473 1472 1471 1469 1467 1465 1464 1462 1460 1458 1457 1455 1454 1452 1450 1448 1446 1444 1442 1440 1438 1436 1434 1432 1429 1427 1424 1422 1419 1417 1415 1413 1411 1410 1409 1408 1408 1407 1407 1408 1408 1409 1410
1468 1467 1465 1464 1462 1460 1458 1456 1454 1452 1450 1448 1446 1445 1443 1441 1440 1438 1436 1434 1431 1430 1428 1425 1423 1421 1418 1416 1413 1411 1409 1407 1405 1404 1403 1402 1402 1401 1401 1402 1402 1403 1405
1463 1462 1460 1458 1456 1454 1452 1450 1448 1446 1444 1442 1440 1438 1436 1435 1433 1431 1429 1427 1425 1423 1421 1419 1417 1415 1412 1410 1407 1405 1403 1401 1399 1398 1397 1396 1396 1395 1395 1396 1397 1398 1399
1459 1457 1455 1453 1450 1448 1446 1444 1442 1440 1438 1435 1433 1432 1430 1428 1426 1424 1423 1420 1418 1416 1414 1412 1410 1408 1406 1404 1402 1399 1397 1395 1394 1392 1391 1390 1390 1390 1390 1391 1391 1392 1394
1455 1452 1450 1447 1445 1442 1440 1438 1436 1434 1431 1429 1427 1425 1423 1421 1419 1418 1416 1414 1412 1410 1408 1406 1404 1402 1400 1398 1396 1393 1391 1390 1388 1387 1386 1385 1384 1384 1385 1385 1386 1387 1388
1450 1447 1445 1442 1439 1437 1434 1432 1430 1428 1425 1423 1421 1418 1417 1415 1413 1411 1410 1408 1407 1405 1403 1400 1398 1396 1394 1392 1390 1388 1386 1384 1383 1382 1381 1380 1379 1379 1379 1380 1381 1382 1383
1445 1442 1439 1436 1434 1431 1428 1426 1424 1422 1419 1417 1415 1413 1411 1409 1407 1406 1404 1403 1401 1399 1397 1395 1393 1391 1389 1387 1384 1382 1381 1379 1378 1377 1376 1375 1375 1375 1375 1376 1376 1378 1379
1440 1437 1434 1431 1428 1425 1423 1420 1418 1416 1413 1411 1409 1407 1405 1404 1402 1400 1399 1398 1396 1394 1392 1390 1388 1386 1384 1382 1380 1377 1375 1374 1372 1371 1371 1371 1371 1371 1371 1372 1372 1373 1375
1435 1432 1429 1426 1423 1420 1418 1415 1413 1410 1408 1406 1404 1402 1400 1399 1397 1396 1394 1393 1391 1389 1387 1385 1383 1381 1379 1377 1375 1373 1371 1369 1367 1367 1366 1366 1367 1367 1368 1368 1369 1370 1371